Regional Weather Roundup
Issued by NWS

Home | Current Version | Previous Version | Graphics & Text | Print | Product List | Glossary On
Versions: 1 2 3 4 5 6 7 8 9 10 11 12 13 14 15 16 17 18 19 20 21 22 23 24 25 26 27 28 29 30 31 32 33 34 35 36 37 38 39 40 41 42 43 44 45 46 47 48 49 50
000
ASUS43 KLSX 271459
RWRMO

WEATHER SUMMARY FOR MISSOURI
NATIONAL WEATHER SERVICE SPRINGFIELD MO
1000 AM CDT TUE JUN 27 2017

NOTE: "FAIR" INDICATES FEW OR NO CLOUDS BELOW 12,000 FEET WITH NO
       SIGNIFICANT WEATHER AND/OR OBSTRUCTIONS TO VISIBILITY.
       CURRENT SKY AND/OR WEATHER CONDITIONS ARE NOT AVAILABLE FOR
       CHILLICOTHE AND FARMINGTON.

MOZ001>031-035>038-043-044-053-054-271600-
...NORTHERN AND WESTERN MISSOURI...

CITY           SKY/WX    TMP DP  RH WIND       PRES   REMARKS
KANSAS CTY INT MOSUNNY   68  60  75 SE15      30.11F
KANSAS C DTWN  SUNNY     71  59  65 E13       30.09F
LEE`S SUMMIT   SUNNY     69  60  73 SE8       30.12F
ST JOSEPH      SUNNY     69  60  73 SE12      30.10F
CHILLICOTHE      N/A     70  60  70 E6        30.14F
KIRKSVILLE     SUNNY     70  54  56 E8        30.16F

$$
MOZ066>068-077>081-088>096-101>105-271600-
...SOUTHWEST MISSOURI...

CITY           SKY/WX    TMP DP  RH WIND       PRES   REMARKS
SPRINGFIELD    SUNNY     70  62  76 SE14      30.12F
JOPLIN         SUNNY     75  68  78 S5        30.10F
BRANSON        MOSUNNY   70  61  73 SE9       30.15F

$$
MOZ032>034-039>042-045>050-055>058-069>072-271600-
...CENTRAL MISSOURI...

CITY           SKY/WX    TMP DP  RH WIND       PRES   REMARKS
COLUMBIA       SUNNY     70  60  70 E9        30.15F
JEFFERSON CITY MOSUNNY   67  60  78 SE7       30.15F
ROLLA          SUNNY     68  59  73 SE6       30.15F
SEDALIA        SUNNY     69  61  75 SE12      30.15S
WARRENSBURG    SUNNY     68  59  73 E9        30.13F
OSAGE BEACH    MOSUNNY   69  60  73 SE7       30.15F

$$
MOZ051-052-059>065-271600-
...EAST CENTRAL MISSOURI...

CITY           SKY/WX    TMP DP  RH WIND       PRES   REMARKS
ST LOUIS INTL  MOSUNNY   74  54  49 SE6       30.16F
SPIRIT OF STL  MOSUNNY   72  58  61 NE3       30.15F
ST CHARLES     SUNNY     71  59  65 VRB6      30.16S

$$
MOZ072>076-082>087-097>100-106>115-271600-
...SOUTH CENTRAL AND SOUTHEAST MISSOURI...

CITY           SKY/WX    TMP DP  RH WIND       PRES   REMARKS
CAPE GIRARDEAU SUNNY     71  56  58 NE8       30.15S
FARMINGTON     SUNNY     70  57  63 VRB5      30.17F
POPLAR BLUFF   SUNNY     71  61  70 VRB3      30.14F
WEST PLAINS    SUNNY     69  60  73 E8        30.17S

$$




USA.gov is the U.S. government's official web portal to all federal, state and local government web resources and services.